Weather in Olkha

Russia / Irkutsk Oblast     52°09′42″N   104°06′50″E
temp.,
°C
wind,
m/s
gust,
m/s
humid.,
%
clouds,
%
prec.,
mm/h
press.,
hPa
HPBL,
m
14 june, mon
mon1423:00+7sw11945 0.0 101215
02:00+6sw22955 0.0 101218
05:00+6s119167 0.0 101114
08:00+13se23624 0.0 1009364
11:00+18ne2242100 0.0 10081398
14:00+19ne2237100 0.0 10061884
17:00+19ene2240100 0.0 10051304
20:00+16nw1260100 0.0 100528
15 june, tue
tue1523:00+9wnw51195100 0.8 1011718
02:00+9wnw51193100 1.1 1012789
05:00+8nw51095100 0.6 1013963
08:00+6nw51094100 2.1 1016899
11:00+9nw4875100 0.4 10171277
14:00+12nw4655100 0.6 10151652
17:00+13nw3556100 0.2 10141257
20:00+11nw257357 0.4 1015260
16 june, wed
wed1623:00+6wsw23935 0.1 101542
02:00+5w229472 0.1 101540
05:00+4wsw259412 0.0 1016103
08:00+10nw4870100 0.0 1015764
11:00+8nw51091100 1.1 10151325
14:00+8wnw51194100 3.1 10151310
17:00+9wnw51294100 1.2 1014870
20:00+10wnw3992100 1.3 1014437
17 june, thu
thu1723:00+9sw119288 0.0 101421
02:00+7wsw2294100 0.0 101320
05:00+7wsw219388 0.0 101317
08:00+12w12745 0.0 1013252
11:00+18nnw234898 0.0 10111208
14:00+22nne123863 0.0 10101868
17:00+21n3342100 0.0 10081675
20:00+15nnw116997 0.0 100817
18 june, fri
fri1823:00+13nnw117860 0.0 100817
02:00+11wnw1192100 0.0 100819
05:00+10w119769 0.0 100724
08:00+14nw238092 0.0 1006388
11:00+13nw3792100 0.3 1007530
14:00+15wnw367887 0.5 1006810
17:00+19nnw335563 0.1 10051498
20:00+17nnw1275100 0.2 100438